Flag for Germany Weather past 2 weeks in Freising, Bavaria, Germany

Now
72 °F

Passing clouds.


Feels Like: 74 °F
Forecast: 59 / 89 °F
Wind: No wind

Location: Muenchen Flughafen

Current Time: Aug 29, 2015 at 10:32:10 AM

Latest Report: Aug 29, 2015 at 9:00 AM


Visibility: 19 mi

Pressure: 30.19 "Hg

Humidity: 75%

Dew point: 64 °F

Location of FreisingLocation

Historic Weather in Freising — Graph

°F

Freising temperature yesterday

Maximum temperature yesterday: 88 °F (at 4:00 PM)
Minimum temperature yesterday: 56 °F (at 5:00 AM)
Average temperature yesterday: 73 °F

Past Weeks' High & Low Weather Summary

 TemperatureHumidityPressure
High88 °F (Aug 28, 4:00 PM)100% (Aug 18, 3:00 AM)30.28 "Hg (Aug 18, 3:00 AM)
Low45 °F (Aug 26, 7:00 AM)27% (Aug 26, 5:00 PM)29.63 "Hg (Aug 24, 7:00 PM)
Average64 °F74%29.98 "Hg
* Reported Aug 14 9:00 AM — Aug 29 9:00 AM, Freising, Weather by CustomWeather, © 2015

Note: Actual official high and low records may vary slightly from our data, if they occured in-between our weather recording intervals... More about our weather records

Advertising

Freising weather history for previous 24 hours

 ConditionsComfort  
Time TempWeatherWind HumidityBarometerVisibility
9:00 AM
Sat, Aug 29
72 °FPassing clouds.No wind75%30.19 "Hg19 mi
8:00 AM65 °FPassing clouds.No wind93%30.22 "Hg19 mi
7:00 AM57 °FFog.1 mph100%30.23 "Hg19 mi
6:00 AM58 °FFog.No wind100%30.22 "Hg16 mi
5:00 AM59 °FPassing clouds.1 mph100%30.22 "Hg19 mi
4:00 AM59 °FPassing clouds.1 mph99%30.21 "Hg25 mi
3:00 AM61 °FPassing clouds.No wind98%30.19 "Hg31 mi
2:00 AM63 °FPassing clouds.1 mph94%30.18 "Hg31 mi
1:00 AM66 °FPassing clouds.1 mph86%30.17 "Hg31 mi
11:00 PM
Fri, Aug 28
70 °FPassing clouds.2 mph75%30.13 "Hg37 mi
10:00 PM73 °FPassing clouds.2 mph69%30.10 "Hg43 mi
9:00 PM75 °FPassing clouds.N/A62%30.07 "Hg43 mi
8:00 PM80 °FScattered clouds.2 mph49%30.03 "Hg43 mi
7:00 PM85 °FScattered clouds.2 mph36%30.01 "Hg37 mi
6:00 PM87 °FPartly sunny.6 mph31%30.01 "Hg37 mi
5:00 PM87 °FPartly sunny.8 mph31%30.01 "Hg37 mi
4:00 PM88 °FPartly sunny.5 mph35%30.01 "Hg37 mi
3:00 PM86 °FPartly sunny.6 mph37%30.01 "Hg37 mi
2:00 PM86 °FPartly sunny.3 mph39%30.02 "Hg31 mi
1:00 PM81 °FPartly sunny.3 mph49%30.03 "Hg28 mi
12:00 PM78 °FScattered clouds.3 mph54%30.04 "Hg28 mi
11:00 AM74 °FPartly sunny.2 mph62%30.06 "Hg28 mi
10:00 AM70 °FOvercast.2 mph72%30.06 "Hg28 mi
Weather by CustomWeather, © 2015

See weather overviewHow to use our weather pages